User: anonymous   Login
Location: Hartman Creek State Park
(44.3257°N, 89.2134°W)
Time: 02:21:27
(UTC-05:00)
Language:

Cosmos 2263 Rocket - Orbit

View from above orbital plane
View from above orbital plane
View from above satellite
View from above satellite

Ground track
Ground track

The orbit data is extracted from the following two-line orbital elements,

1 22803U 93059B   16211.49197431 -.00000194  00000-0 -73116-4 0  9998
2 22803  70.9882 209.4165 0016480 164.5919 195.5709 14.16747595182570
Epoch (UTC): 29 July 2016 11:48:26
Eccentricity: 0.0016480
inclination: 70.9882°
perigee height: 824 km
apogee height: 848 km
right ascension of ascending node: 209.4165°
argument of perigee: 164.5919°
revolutions per day: 14.16747595
mean anomaly at epoch: 195.5709°
orbit number at epoch: 18257

The dashed part of the orbit path shows where the satellite is in the earth's shadow,  

DLR